Weather Roundup
Issued by NWS Corpus Christi, TX

Home | Current Version | Previous Version | Text Only | Print | Product List | Glossary On
Versions: 1 2 3 4 5 6 7 8 9 10 11 12 13 14 15 16 17 18 19 20 21 22 23 24 25 26 27 28 29 30 31 32 33 34 35 36 37 38 39 40 41 42 43 44 45 46 47 48 49 50
000
ASUS44 KCRP 280910
HRRCRP

SOUTH TEXAS REGIONAL WEATHER ROUNDUP
NATIONAL WEATHER SERVICE CORPUS CHRISTI TX
400 AM CDT TUE JUL 28 2015


TXZ229>244-281000-
...CORPUS CHRISTI AREA OBSERVATIONS...

CITY           SKY/WX    TMP DP  RH WIND       PRES   REMARKS
CORPUS CHRISTI PTCLDY    81  77  88 SE9       29.92S
NAS CORPUS CHR CLEAR     81  78  91 S12       29.92S
ROCKPORT       PTCLDY    83  77  82 S8        29.92F HX  92
KINGSVILLE NAS MOCLDY    81  80  97 SE9       29.91F HX  91
ALICE          MOCLDY    80  77  90 SE6       29.91S
FALFURRIAS     MOCLDY    79  76  91 SE5       29.91S
$$

...VICTORIA AREA OBSERVATIONS...

CITY           SKY/WX    TMP DP  RH WIND       PRES   REMARKS
VICTORIA       CLEAR     77  76  96 S6        29.94S FOG
BEEVILLE       FAIR      71  71 100 SE5       29.92F FOG
PLEASANTON     MOCLDY    77  74  91 SE6       29.93S
SAN ANTONIO    MOCLDY    79  73  82 S12       29.95F
$$

...LAREDO AREA OBSERVATIONS...

CITY           SKY/WX    TMP DP  RH WIND       PRES   REMARKS
LAREDO         PTCLDY    80  73  79 SE10      29.90F
COTULLA        CLEAR     79  73  82 SE12      29.90F
DEL RIO        CLEAR     81  73  76 E12       29.90R
MCALLEN        PTCLDY    84  77  79 SE13      29.90S HX  94
HEBBRONVILLE     N/A     77  74  91 SE9       29.91S
$$

...OTHER TEXAS OBSERVATIONS...

CITY           SKY/WX    TMP DP  RH WIND       PRES   REMARKS
BROWNSVILLE    CLEAR     81  78  91 SE8       29.90F
HOUSTON        PTCLDY    79  76  90 CALM      29.94F
COL. STATION   CLEAR     77  74  90 S5        29.94F
AUSTIN         PTCLDY    75  74  96 S3        29.94S
WACO           CLEAR     80  72  76 S10       29.93S
FORT WORTH     CLEAR     84  68  58 S13       29.90S
WICHITA FALLS  CLEAR     78  67  68 S9        29.88F
LUBBOCK        PTCLDY    76  62  62 S8        29.98R
EL PASO        MOCLDY    81  56  42 S16       30.01S
$$

...MARINE OBSERVATIONS...

STATION/POSITION TIME  SKY/WX   TEMP    WIND        PRES    VSBY  WAVE   SWELL
                                AIR SEA DIR/SP/G                  HT/PER HT/PER
                 (UTC)          (F)     (DEG/KT/KT) (MB)    (MI)  (FT/S) (FT/S)
PORT ARANSAS     0900            81 82  160/  9/ 10 1013.8F
BUOY 90 E PORT A 0850            85 86  180/ 14/ 16 1013.6F         3/ 5
BUOY 45 SE BAFFI 0850            84 83  160/ 14/ 16 1012.6S         4/ 5
BUOY 200 E PT IS 0850            85 86  180/ 10/ 12 1014.3F         2/ 3
BUOY 15 E GALVES 0850            85 86  180/ 10/ 12 1013.3F         2/ 4   2/ 5
$$


USA.gov is the U.S. government's official web portal to all federal, state and local government web resources and services.